User: anonymous   Login
Location: Unspecified
(40.9447°N, 78.9903°W)
Time: 01:11:54
(UTC-04:00)
Language:

Okean 3 - Orbit

View from above orbital plane
View from above orbital plane
View from above satellite
View from above satellite

Ground track
Ground track

The orbit data is extracted from the following two-line orbital elements,

1 21397U 91039A   21262.53061312  .00000309  00000-0  26954-4 0  9990
2 21397  82.5186 100.2609 0019239  74.4290 285.9052 14.93158397620742
Epoch (UTC): 19 September 2021 12:44:04
Eccentricity: 0.0019239
inclination: 82.5186°
perigee height: 574 km
apogee height: 601 km
right ascension of ascending node: 100.2609°
argument of perigee: 74.4290°
revolutions per day: 14.93158397
mean anomaly at epoch: 285.9052°
orbit number at epoch: 62074

The dashed part of the orbit path shows where the satellite is in the earth's shadow,  

DLR